Location: Arcusa
(42.3167°N, 0.0833°W)
Time: 21:47:19
(UTC+00:00)

Cosmos 1300 - Pass Details

Date: 25 January 2020
Orbit: 511 x 515 km, 82.5° (Epoch: 25 February)

Event Time Altitude Azimuth Distance (km) Brightness Sun altitude
Rises 06:48:01 0° 209° (SSW) 2,619 6.2 -6.4°
Reaches altitude 10° 06:50:19 10° 220° (SW) 1,737 5.2 -6.0°
Maximum altitude 06:53:44 31° 284° (WNW) 932 3.5 -5.4°
Drops below altitude 10° 06:57:10 10° 347° (NNW) 1,749 5.1 -4.9°
Sets 06:59:29 0° 358° (N) 2,641 6.1 -4.5°
